Regional Weather Roundup
Issued by NWS

Home | Current Version | Previous Version | Text Only | Print | Product List | Glossary Off
Versions: 1 2 3 4 5 6 7 8 9 10 11 12 13 14 15 16 17 18 19 20 21 22 23 24 25 26 27 28 29 30 31 32 33 34 35 36 37 38 39 40 41 42 43 44 45 46 47 48 49 50

000
ASUS43 KLOT 301210
RWRIL

ILLINOIS REGIONAL WEATHER ROUNDUP
NATIONAL WEATHER SERVICE CHICAGO/ROMEOVILLE IL
700 AM CDT TUE SEP 30 2014

NOTE: "FAIR" INDICATES FEW OR NO CLOUDS BELOW 12,000 FEET WITH NO
SIGNIFICANT WEATHER AND/OR OBSTRUCTIONS TO VISIBILITY.

* THESE STATIONS ARE NOT UNDER NWS QUALITY CONTROL. THEY ALSO MAY NOT
  REPORT WEATHER SUCH AS PRECIPITATION OR FOG.

ILZ001-002-007-009-015-016-024-301300-
NORTHWEST ILLINOIS

CITY           SKY/WX    TMP DP  RH WIND       PRES   REMARKS
MOLINE         NOT AVBL
SAVANNA*       CLOUDY    50  45  81 NE8       30.05S
$$

ILZ003-004-008-010-011-017-018-301300-
NORTH CENTRAL ILLINOIS

CITY           SKY/WX    TMP DP  RH WIND       PRES   REMARKS
ROCKFORD       DRIZZLE   48  45  89 E9        30.08S
6HR MIN TEMP:  48; 6HR MAX TEMP:  54; 6HR PCP: TRACE;

FREEPORT*      CLOUDY    48  44  87 NE8       30.08R
ROCHELLE*      CLOUDY    47  43  84 NE10      30.06S
DE KALB*       CLOUDY    45  41  85 NE12G18   30.06S
PERU*          CLOUDY    52  47  83 NE9       30.05R
$$

ILZ005-006-012>014-019>023-301300-
NORTHEAST ILLINOIS

CITY           SKY/WX    TMP DP  RH WIND       PRES   REMARKS
CHICAGO-OHARE  DRIZZLE   48  45  89 N12       30.04S FOG
6HR MIN TEMP:  48; 6HR MAX TEMP:  54; 6HR PCP: TRACE;

CHICAGO-MIDWAY CLOUDY    53  49  86 N10       30.04R
6HR MIN TEMP:  53; 6HR MAX TEMP:  57; 6HR PCP: TRACE;

AURORA         MOCLDY    48  42  80 N10       30.06S
6HR MIN TEMP:  48; 6HR MAX TEMP:  55;

LANSING*       CLOUDY    54  47  79 N6        30.02F
JOLIET*        CLOUDY    51  47  86 N10       30.04R
WAUKEGAN       CLOUDY    44  42  93 NW6       30.05S FOG
6HR MIN TEMP:  44; 6HR MAX TEMP:  51; 6HR PCP: TRACE;

DUPAGE AIRPORT CLOUDY    48  44  86 N12       30.05S
6HR MIN TEMP:  48; 6HR MAX TEMP:  54;

KANKAKEE*      CLOUDY    53  48  83 NE7       30.03S
WHEELING       CLOUDY    48  45  89 N8        30.06F
6HR MIN TEMP:  48; 6HR MAX TEMP:  55;

MORRIS*        CLOUDY    52  48  86 N3        30.03S
ROMEOVILLE*    CLOUDY    50  47  89 N10       30.04S
NORTHERLY ISL    N/A     53  47  79 MISG        N/A
$$

LMZ740>746-301300-
SOUTHERN LAKE MICHIGAN

STATION/POSITION SKY/WX   TEMP    WIND        PRES    VSBY  WAVE
                          AIR SEA DIR/SP/G                  HT/PER
                          (F)     (DEG/KT/KT) (MB)    (MI)  (FT/S)
SOUTHERN BUOY              52 61  350/ 16/ 19 1017.0R         7/ 8
WAUKEGAN HARBOR                   330/ 10/ 14   N/A
HARRISON CRIB              53      10/ 20/ 23   N/A
BURNHAM HARBOR             53      10/ 15/ 19   N/A
CALUMET HARBOR             54     340/ 11/ 17 1015.9R
MICHIGAN CITY              53     360/ 20/ 25   N/A
MICHIGAN CITY 6N           55 65   10/ 16/ 21   N/A           7/ 2
ST. JOSEPH                 54 62   10/ 16/ 23   N/A           6/ 2
$$

ILZ025>027-034>036-040-047-049-050-058-095>099-301300-
WEST-CENTRAL ILLINOIS

CITY           SKY/WX    TMP DP  RH WIND       PRES   REMARKS
QUINCY         CLEAR     58  56  93 NE7       29.97R FOG
GALESBURG*     CLOUDY    55  53  92 NE9       30.01R
MACOMB*        CLOUDY    57  56  97 E8        30.02S FOG
JACKSONVILLE*  RAIN      60  59  96 NE8       29.98S VSB 1/4
PITTSFIELD*    CLEAR     61  57  85 CALM      29.98R
$$

ILZ028>032-037-038-041>044-048-051>054-059>061-301300-
CENTRAL ILLINOIS

CITY           SKY/WX    TMP DP  RH WIND       PRES   REMARKS
PONTIAC        CLOUDY    55  52  88 NE8       30.02S
BLOOMINGTON    CLOUDY    55  54  94 NE13        N/A
DECATUR        CLOUDY    58  56  93 NE12      30.00R FOG
PEORIA         CLOUDY    59  53  80 E9        30.01R
6HR MIN TEMP:  59; 6HR MAX TEMP:  65;

LACON*         CLOUDY    54  49  85 NE5       30.02S
LINCOLN*       CLOUDY    58  56  92 E9        29.98R
SPRINGFIELD    FOG       58  57  97 NE10      29.99R VSB 3/4
6HR MIN TEMP:  57; 6HR MAX TEMP:  61;

TAYLORVILLE    FOG       55  55 100 NE8       29.98S VSB 1/4
$$

ILZ033-039-045-046-055>057-062-063-301300-
EAST-CENTRAL ILLINOIS

CITY           SKY/WX    TMP DP  RH WIND       PRES   REMARKS
DANVILLE*      CLOUDY    55  52  91 N10       29.98R
RANTOUL*       CLOUDY    57  52  84 NE10      30.01R
MATTOON        CLOUDY    57  57 100 NE8       29.97R
PARIS*         CLOUDY    58  58  99 CALM      29.99S FOG
$$

ILZ079-100>102-301300-
SOUTHWEST ILLINOIS

CITY           SKY/WX    TMP DP  RH WIND       PRES   REMARKS
ALTON          PTCLDY    55  55 100 CALM      29.96S FOG
BELLEVILLE     CLEAR     57  57 100 CALM      29.95S
CAHOKIA*       CLEAR     57  56  96 CALM      29.96S
SPARTA*        CLEAR     58  56  92 CALM      29.97R
$$

ILZ064>066-069>071-074>076-080>082-084>086-088>090-092>094-301300-
SOUTH-CENTRAL ILLINOIS

CITY           SKY/WX    TMP DP  RH WIND       PRES   REMARKS
CARBONDALE     CLEAR     52  50  93 CALM      29.96R FOG
6HR MIN TEMP:  52; 6HR MAX TEMP:  57;

CAIRO*         CLEAR     53  51  93 CALM      29.96R FOG
EFFINGHAM*     CLEAR     58  54  86 N5        29.96R
MARION         PTCLDY    57  55  94 CALM      29.97R
CENTRALIA*     CLEAR     55  53  93 CALM      29.96R FOG
SALEM*         FOG       58  57  99 CALM      29.96S VSB<1/4
METROPOLIS*    CLEAR     52  52 100 CALM      29.95R
$$

ILZ067-068-072-073-078-083-087-091-301300-
SOUTHEAST ILLINOIS

CITY           SKY/WX    TMP DP  RH WIND       PRES   REMARKS
LAWRENCEVILLE  CLEAR     55  53  93 CALM      29.95R FOG
FLORA*         RAIN      55  53  95 CALM      29.96S
FAIRFIELD*     CLEAR     55  54  94 CALM      29.95S FOG
HARRISBURG*    CLEAR     54  54 100 CALM      29.97R FOG
ROBINSON*      CLEAR     55  55  98 N6        29.96S
CARMI*         CLEAR     54  54  99 CALM      29.95R FOG
$$

ABBREVIATIONS USED IN REMARKS
   TC - TEMPERATURE IN CELSIUS
  WCI - WIND CHILL INDEX
   HX - HEAT INDEX
  VSB - VISIBILITY
$$



USA.gov is the U.S. government's official web portal to all federal, state and local government web resources and services.